LiveATC.Net - Listen to live air traffic control over the Internet!


ICAO: USTR  IATA: TJM   Airport: Roshchino International Airport
City: Tyumen
Country: Russia   Continent: Asia
USTR METAR Weather: USTR 201030Z 18005MPS CAVOK M08/M12 Q1021 R21/390045 R30/390045 NOSIG
USTR Flight Activity (FlightAware)

USTR Gnd/Twr/App
Feed Status: UP   Listeners: 0
Listen in your browser - HTML5 player (in browser, HTML5)
Click here to listen with your own player (launches your MP3 player)
Archive Access: USTR Gnd/Twr/App
FacilityFrequency
Tyumen Approach126.100
Tyumen Control132.600
Tyumen Control133.600
Tyumen Info (Regional)133.400
Tyumen Start118.200
Tyumen Transit131.800

NOTICE

Unauthorized use prohibited. See LiveATC.net Terms of Service


Airport/ARTCC Code
Frequency Search
(e.g., 124.400, 128.75)
Site-wide search
 


Browse Feeds
Top 50 Feeds
HF Oceanic Feeds
Coverage Map
Bad Weather Areas

LiveATC FAQ
Offer LiveATC feed
Contact LiveATC.net
Press Inquiries

LiveATC on iPhone
LiveATC on Android

LiveATC Mobile
(Mobile browser)

ATC Audio Archives
Interesting Recordings

LiveATC Forums


Home Page
About LiveATC.net
Make a Donation
Terms of Use
Privacy Policy

Canadian Air Freqs

AIRMETs/SIGMETs

FAA Airport Status
NAS Status
Arrival Demand


Server Software By:
Icecast.org
Liquidsoap